Stations météo

Publicité
Pau, France (7610): Température de l'air & dewpoint: 10.12.2018 13:00:00 - 16.12.2018 13:00:00 (CET)Pau, France (7610): Température de l'air 5cm: 10.12.2018 13:00:00 - 16.12.2018 13:00:00 (CET)Pau, France (7610): Température de l'air -20cm & Température de l'air -100cm: 10.12.2018 13:00:00 - 16.12.2018 13:00:00 (CET)Pau, France (7610): Vitesse du vent & gusts: 10.12.2018 13:00:00 - 16.12.2018 13:00:00 (CET)Pau, France (7610): Direction du vent: 10.12.2018 13:00:00 - 16.12.2018 13:00:00 (CET)Pau, France (7610): reduced air pressure: 10.12.2018 13:00:00 - 16.12.2018 13:00:00 (CET)Pau, France (7610): visibility: 10.12.2018 13:00:00 - 16.12.2018 13:00:00 (CET)Pau, France (7610): Ensoleillement: 10.12.2018 13:00:00 - 16.12.2018 13:00:00 (CET)Pau, France (7610): Quantités de précipitations: 10.12.2018 13:00:00 - 16.12.2018 13:00:00 (CET)
Date & Time tt [°C] td [°C] tt 5cm [°C] tt -20cm [°C] tt -100cm [°C] ff [km/h] ff [knt] fx [km/h] fx [knt] dd ppp [hPa] vv [km] sd [min] rr [mm]
16.12.2018 13:00:00 11,6 10,0 11,1 11,2 13,1 6 4 19 11 NE 1012,5 36 10 0,0
16.12.2018 12:00:00 10,6 9,7 10,7 11,2 13,1 13 7 19 11 N 1013,5 18 5 0,0
16.12.2018 11:00:00 10,5 9,9 10,0 11,1 13,1 6 3 23 13 N 1014,6 27 0 0,2
16.12.2018 10:00:00 10,0 9,4 9,6 11,1 13,1 4 2 20 11 NNE 1015,5 20 0 0,2
16.12.2018 09:00:00 9,9 9,3 9,4 11,1 13,1 13 7 22 12 SSE 1015,7 17 0 1,2
16.12.2018 08:00:00 9,7 8,9 9,5 11,1 13,1 8 4 14 8 NNW 1016,2 5 0 1,0
16.12.2018 07:00:00 10,6 9,8 10,3 11,1 13,1 4 2 19 10 N 1016,3 9 0 1,0
16.12.2018 06:00:00 11,1 10,3 10,8 11,1 13,1 9 5 14 8 WNW 1016,7 3,9 0 0,6
16.12.2018 05:00:00 11,6 10,5 11,1 11,1 13,1 3 2 7 4 S 1016,8 9 0 0,2
16.12.2018 04:00:00 11,9 10,6 11,0 11,1 13,1 8 4 19 10 NW 1017,0 20 0 0,0
16.12.2018 03:00:00 11,8 10,4 10,7 11,1 13,2 7 4 14 8 NNW 1017,5 34 0 0,0
16.12.2018 02:00:00 11,7 9,8 10,6 11,1 13,2 9 5 24 13 NNW 1017,7 40 0 0,2
16.12.2018 01:00:00 11,1 10,2 10,3 11,0 13,1 4 2 9 5 SSW 1017,7 12 0 0,0
16.12.2018 00:00:00 11,1 10,2 9,5 11,0 13,1 2 1 7 4 N 1017,3 8 0 0,0
15.12.2018 23:00:00 11,0 9,9 10,3 11,0 13,1 3 2 8 4 WNW 1016,9 11 0 0,2
15.12.2018 22:00:00 11,3 9,9 10,4 11,0 13,2 4 2 13 7 ENE 1016,4 16 0 0,0
15.12.2018 21:00:00 11,7 10,4 10,3 10,9 13,2 3 2 10 5 ESE 1016,1 18 0 0,0
15.12.2018 20:00:00 11,2 10,1 9,2 10,9 13,2 4 2 7 4 ESE 1016,4 13 0 0,0
15.12.2018 19:00:00 12,0 10,7 9,8 10,8 13,2 5 3 16 9 SSE 1016,4 18 0 0,0
15.12.2018 18:00:00 12,6 11,0 10,3 10,8 13,2 3 2 13 7 E 1016,7 36 0 0,0
15.12.2018 17:00:00 14,1 11,3 13,0 10,8 13,2 8 4 16 8 SE 1016,5 40 0 0,0
15.12.2018 16:00:00 14,5 10,9 13,4 10,7 13,2 5 3 17 9 ESE 1017,2 60 0 0,0
15.12.2018 15:00:00 15,0 10,6 14,2 10,6 13,2 8 5 13 7 ESE 1016,7 58 2 0,0
15.12.2018 14:00:00 15,2 10,0 17,7 10,6 13,2 7 4 11 6 SE 1017,4 60 20 0,0
15.12.2018 13:00:00 14,2 8,8 12,8 10,6 13,2 6 3 11 6 E 1018,5 36 19 0,0
15.12.2018 12:00:00 12,0 7,1 11,0 10,7 13,2 4 2 16 9 SSE 1020,3 60 17 0,0
15.12.2018 11:00:00 10,5 7,4 7,9 10,7 13,2 9 5 15 8 SSE 1020,6 55 12 0,0
15.12.2018 10:00:00 8,4 6,2 6,8 10,7 13,2 10 5 13 7 SSE 1021,1 60 0 0,0
15.12.2018 09:00:00 7,2 5,7 6,4 10,7 13,2 10 5 16 9 ESE 1020,6 60 0 0,0
15.12.2018 08:00:00 6,8 5,6 5,9 10,7 13,2 11 6 16 9 SE 1020,9 59 0 0,0
15.12.2018 07:00:00 6,3 5,4 5,5 10,8 13,2 5 3 16 9 SE 1021,2 45 0 0,0
15.12.2018 06:00:00 6,1 5,5 4,6 10,8 13,2 9 5 16 9 ESE 1021,4 37 0 0,0
15.12.2018 05:00:00 5,9 5,5 2,7 10,8 13,2 10 5 16 8 ESE 1021,7 12 0 0,0
15.12.2018 04:00:00 6,0 5,4 2,4 10,8 13,2 11 6 15 8 ESE 1022,2 3,0 0 0,0
15.12.2018 03:00:00 7,0 6,4 3,4 10,8 13,2 3 2 9 5 E 1022,8 0,4 0 0,0
15.12.2018 02:00:00 7,6 6,8 6,1 10,8 13,2 5 3 12 6 SE 1023,1 18 0 0,2
15.12.2018 01:00:00 8,1 7,3 5,9 10,8 13,2 8 5 12 7 S 1023,3 19 0 0,0
15.12.2018 00:00:00 8,7 8,1 7,7 10,8 13,2 8 4 12 6 S 1023,6 10 0 0,0
14.12.2018 23:00:00 9,1 8,5 8,5 10,8 13,2 7 4 13 7 SW 1023,7 6 0 0,0
14.12.2018 22:00:00 9,0 8,2 8,2 10,8 13,2 8 4 11 6 SSW 1023,8 6 0 0,0
14.12.2018 21:00:00 8,8 7,9 7,4 10,8 13,2 6 3 10 5 SW 1023,9 20 0 0,0
14.12.2018 20:00:00 8,9 7,5 7,2 10,8 13,2 8 4 17 9 W 1023,7 19 0 0,4
14.12.2018 19:00:00 9,5 7,4 8,4 10,7 13,2 6 3 12 6 W 1023,0 39 0 0,0
14.12.2018 18:00:00 9,9 7,7 9,0 10,7 13,2 5 3 9 5 W 1022,5 35 0 0,0
14.12.2018 17:00:00 10,3 8,1 9,8 10,7 13,3 4 2 15 8 SW 1022,1 35 0 0,0
14.12.2018 16:00:00 10,5 7,9 10,2 10,7 13,2 11 6 26 14 WSW 1022,1 38 0 0,0
14.12.2018 15:00:00 10,7 7,6 10,6 10,7 13,3 16 8 26 14 W 1021,0 45 0 0,0
14.12.2018 14:00:00 10,6 7,5 10,3 10,6 13,3 11 6 23 12 W 1020,4 42 0 0,0
14.12.2018 13:00:00 10,0 7,6 9,9 10,6 13,3 14 8 23 12 WNW 1020,4 20 4 0,0
14.12.2018 12:00:00 10,7 8,3 9,8 10,6 13,3 11 6 21 11 W 1019,9 57 17 0,0
14.12.2018 11:00:00 10,5 8,9 9,7 10,6 13,3 11 6 22 12 WSW 1019,6 46 20 0,0
14.12.2018 10:00:00 9,4 8,8 7,7 10,6 13,3 11 6 17 9 SW 1018,6 12 20 0,0
14.12.2018 09:00:00 8,2 7,6 3,8 10,6 13,3 7 4 11 6 SW 1017,7 10 0 0,0
14.12.2018 08:00:00 8,9 8,1 8,3 10,6 13,3 10 6 19 10 WNW 1016,5 13 0 0,0
14.12.2018 07:00:00 9,4 8,6 9,0 10,6 13,3 11 6 19 10 NW 1015,5 14 0 0,2
14.12.2018 06:00:00 9,4 8,6 8,9 10,6 13,3 12 7 22 12 WSW 1014,7 23 0 0,6
14.12.2018 05:00:00 9,3 8,7 8,9 10,6 13,3 13 7 29 15 WSW 1014,4 17 0 0,6
14.12.2018 04:00:00 9,2 8,4 8,6 10,7 13,3 9 5 14 8 WSW 1014,4 5 0 0,2
14.12.2018 03:00:00 8,9 8,1 7,9 10,6 13,3 9 5 16 9 WSW 1014,2 12 0 0,0
14.12.2018 02:00:00 9,1 7,9 8,3 10,6 13,3 11 6 22 12 W 1013,6 29 0 0,0
14.12.2018 01:00:00 9,4 8,2 8,7 10,6 13,2 15 8 33 18 WNW 1012,9 20 0 0,2
14.12.2018 00:00:00 9,6 9,0 9,0 10,6 13,3 16 9 26 14 W 1012,4 11 0 0,4
13.12.2018 23:00:00 9,3 8,7 8,9 10,7 13,3 12 7 21 12 WSW 1011,7 9 0 0,8
13.12.2018 22:00:00 9,3 8,5 8,8 10,7 13,3 14 8 23 12 WSW 1011,3 12 0 0,4
13.12.2018 21:00:00 9,2 8,3 8,6 10,7 13,3 14 8 39 21 W 1010,6 18 0 0,6
13.12.2018 20:00:00 9,2 8,0 8,5 10,7 13,3 27 15 53 29 W 1009,4 13 0 1,8
13.12.2018 19:00:00 8,9 8,0 8,5 10,7 13,3 21 11 36 19 WSW 1008,8 11 0 1,9
13.12.2018 18:00:00 9,3 8,2 8,8 10,7 13,3 24 13 44 24 W 1008,1 11 0 2,4
13.12.2018 17:00:00 9,5 8,4 8,9 10,7 13,3 29 16 50 27 W 1007,1 9 0 2,8
13.12.2018 16:00:00 9,2 8,3 8,7 10,7 13,3 34 18 54 29 W 1006,0 3,9 0 6,5
13.12.2018 15:00:00 9,5 8,3 9,0 10,7 13,3 29 16 54 29 WSW 1004,7 3,9 0 3,0
13.12.2018 14:00:00 9,4 8,5 9,2 10,7 13,3 9 5 14 8 S 1005,2 5 0 1,6
13.12.2018 13:00:00 9,2 8,1 9,0 10,8 13,3 4 2 10 5 WSW 1005,6 5 0 1,2
13.12.2018 12:00:00 8,9 7,8 8,2 10,8 13,3 6 3 12 6 ESE 1005,7 31 0 0,2
13.12.2018 11:00:00 8,1 7,2 7,4 10,8 13,3 8 5 16 8 E 1005,9 11 0 0,6
13.12.2018 10:00:00 7,6 6,7 7,1 10,8 13,3 10 5 15 8 ESE 1006,0 11 0 2,3
13.12.2018 09:00:00 7,5 6,4 7,0 10,8 13,3 10 6 16 9 ESE 1006,3 8 0 1,6
13.12.2018 08:00:00 7,5 6,3 6,9 10,9 13,4 7 4 10 6 S 1006,6 12 0 1,8
13.12.2018 07:00:00 7,7 5,8 7,0 10,9 13,4 3 1 10 6 E 1006,8 8 0 0,8
13.12.2018 06:00:00 8,1 5,0 6,6 10,9 13,3 8 4 16 9 SE 1007,0 39 0 0,0
13.12.2018 05:00:00 7,2 4,8 4,8 10,9 13,4 8 5 14 7 E 1008,0 36 0 0,0
13.12.2018 04:00:00 6,7 4,7 4,0 10,9 13,4 3 2 10 5 SSE 1008,9 41 0 0,0
13.12.2018 03:00:00 7,4 4,9 4,8 10,9 13,4 2 1 10 5 E 1009,4 44 0 0,0
13.12.2018 02:00:00 7,7 4,6 5,1 10,9 13,4 3 2 12 6 E 1010,5 31 0 0,0
13.12.2018 01:00:00 8,2 5,1 6,0 10,9 13,4 8 4 11 6 ENE 1011,3 35 0 0,0
13.12.2018 00:00:00 8,1 5,7 6,6 10,9 13,4 8 4 23 12 E 1012,0 23 0 0,0
12.12.2018 23:00:00 8,3 5,9 7,6 10,9 13,3 11 6 16 9 ESE 1012,9 20 0 0,0
12.12.2018 22:00:00 8,7 6,7 7,9 11,0 13,4 11 6 16 9 SE 1014,2 18 0 0,0
12.12.2018 21:00:00 8,7 7,3 7,2 10,9 13,4 9 5 13 7 E 1014,9 13 0 0,0
12.12.2018 20:00:00 8,5 7,4 6,5 10,9 13,4 4 2 6 3 E 1016,4 8 0 0,0
12.12.2018 19:00:00 9,1 7,5 7,5 10,9 13,4 4 2 8 4 E 1016,8 24 0 0,0
12.12.2018 18:00:00 10,0 7,9 8,9 10,9 13,4 6 3 10 5 S 1017,4 29 0 0,0
12.12.2018 17:00:00 10,6 8,4 9,7 10,8 13,4 5 3 16 9 S 1017,8 36 0 0,0
12.12.2018 16:00:00 11,2 8,8 11,2 10,8 13,4 8 5 15 8 SW 1018,2 35 0 0,0
12.12.2018 15:00:00 11,4 8,6 11,7 10,8 13,4 9 5 17 9 SW 1018,4 20 0 0,0
12.12.2018 14:00:00 11,6 9,0 12,2 10,7 13,4 13 7 21 11 SW 1019,2 20 0 0,0
12.12.2018 13:00:00 11,6 9,5 11,5 10,7 13,4 14 8 23 12 SW 1020,2 20 0 0,0
12.12.2018 12:00:00 11,6 9,5 11,1 10,7 13,4 11 6 19 11 W 1021,0 19 0 0,0
12.12.2018 11:00:00 11,1 9,4 10,8 10,7 13,4 13 7 21 11 W 1021,4 19 0 0,0
12.12.2018 10:00:00 10,9 9,8 10,2 10,7 13,4 11 6 29 15 WNW 1021,6 17 0 0,6
12.12.2018 09:00:00 10,4 9,8 10,0 10,8 13,4 13 7 26 14 WSW 1021,4 3,5 0 0,6
12.12.2018 08:00:00 10,1 9,5 9,3 10,8 13,4 16 9 29 16 WSW 1020,9 2,7 0 1,8
12.12.2018 07:00:00 9,7 8,8 8,0 10,8 13,4 8 4 16 9 SW 1020,9 6 0 0,6
12.12.2018 06:00:00 8,0 6,1 6,8 10,9 13,4 6 3 9 5 SSE 1021,0 18 0 0,0
12.12.2018 05:00:00 6,9 4,6 5,8 10,9 13,4 5 3 9 5 SE 1021,7 16 0 0,0
12.12.2018 04:00:00 5,9 3,6 4,3 11,0 13,5 6 4 14 8 ESE 1022,2 15 0 0,0
12.12.2018 03:00:00 7,1 4,4 2,2 11,0 13,4 9 5 12 7 SSE 1022,3 20 0 0,0
12.12.2018 02:00:00 8,1 5,2 2,8 11,1 13,4 8 4 19 10 W 1022,1 25 0 0,0
12.12.2018 01:00:00 7,1 4,4 1,1 11,1 13,5 5 3 11 6 SW 1022,0 19 0 0,0
12.12.2018 00:00:00 3,5 2,3 0,1 11,1 13,5 4 2 10 5 ESE 1022,2 11 0 0,0
11.12.2018 23:00:00 3,1 1,9 -0,2 11,2 13,5 6 3 9 5 ESE 1021,6 13 0 0,0
11.12.2018 22:00:00 3,7 2,4 0,4 11,2 13,5 5 3 7 4 ESE 1021,4 12 0 0,0
11.12.2018 21:00:00 4,3 2,6 0,9 11,2 13,5 4 2 6 3 E 1021,1 17 0 0,0
11.12.2018 20:00:00 5,2 3,0 1,3 11,2 13,4 5 3 6 3 ESE 1020,8 24 0 0,0
11.12.2018 19:00:00 6,1 3,4 1,6 11,2 13,5 3 2 6 4 E 1020,9 27 0 0,0
11.12.2018 18:00:00 8,7 3,9 4,7 11,1 13,4 5 3 12 7 NE 1020,7 32 0 0,0
11.12.2018 17:00:00 10,6 4,3 9,6 11,1 13,5 8 5 14 8 NE 1020,3 18 54 0,0
11.12.2018 16:00:00 11,8 4,5 13,5 11,1 13,4 9 5 15 8 NE 1020,2 39 53 0,0
11.12.2018 15:00:00 12,2 4,9 14,1 11,1 13,5 8 4 21 11 ENE 1020,3 40 51 0,0
11.12.2018 14:00:00 12,1 4,8 15,6 11,1 13,4 9 5 20 11 E 1020,9 29 60 0,0
11.12.2018 13:00:00 11,5 5,4 13,5 11,1 13,5 11 6 27 15 E 1021,9 29 58 0,0
11.12.2018 12:00:00 10,1 4,9 11,7 11,1 13,5 17 9 29 16 E 1023,0 19 60 0,0
11.12.2018 11:00:00 8,6 4,8 7,5 11,3 13,5 13 7 25 14 E 1023,7 19 41 0,0
11.12.2018 10:00:00 5,7 5,1 1,7 11,3 13,5 5 3 11 6 E 1023,7 19 60 0,0
11.12.2018 09:00:00 2,9 2,3 -1,5 11,4 13,5 5 3 9 5 E 1023,9 11 13 0,0
11.12.2018 08:00:00 2,3 1,4 -1,4 11,4 13,5 2 1 9 5 E 1024,2 7 0 0,0
11.12.2018 07:00:00 3,1 2,2 -0,8 11,5 13,5 10 5 13 7 ESE 1024,5 17 0 0,0
11.12.2018 06:00:00 3,0 2,4 -0,9 11,6 13,5 9 5 11 6 ESE 1025,4 12 0 0,0
11.12.2018 05:00:00 3,0 2,3 -0,6 11,6 13,5 6 4 9 5 ESE 1026,3 12 0 0,0
11.12.2018 04:00:00 2,9 2,2 -0,7 11,7 13,5 5 3 7 4 E 1027,2 7 0 0,0
11.12.2018 03:00:00 3,2 2,5 -0,6 11,8 13,5 4 2 7 4 S 1027,7 11 0 0,0
11.12.2018 02:00:00 3,4 2,5 0,4 11,8 13,5 4 2 13 7 S 1027,8 8 0 0,0
11.12.2018 01:00:00 4,4 3,7 -0,4 11,8 13,5 6 3 10 5 ENE 1028,3 19 0 0,0
11.12.2018 00:00:00 4,7 3,5 0,8 11,9 13,5 5 3 9 5 E 1028,8 16 0 0,0
10.12.2018 23:00:00 5,4 3,9 0,7 11,9 13,5 6 3 9 5 ESE 1029,3 14 0 0,0
10.12.2018 22:00:00 5,8 4,0 1,1 11,9 13,5 4 2 6 3 ENE 1029,9 16 0 0,0
10.12.2018 21:00:00 6,6 4,4 3,0 11,9 13,5 4 2 8 4 NE 1030,4 17 0 0,0
10.12.2018 20:00:00 8,0 4,4 3,3 11,8 13,5 5 3 12 7 ENE 1030,6 20 0 0,0
10.12.2018 19:00:00 10,2 5,0 8,0 11,8 13,5 8 5 15 8 NE 1030,8 33 0 0,0
10.12.2018 18:00:00 11,0 5,5 9,7 11,7 13,5 7 4 15 8 NE 1030,7 34 0 0,0
10.12.2018 17:00:00 11,6 6,3 11,3 11,7 13,5 5 3 12 7 NE 1030,6 36 35 0,0
10.12.2018 16:00:00 12,4 6,2 13,4 11,6 13,5 9 5 12 7 N 1030,8 11 56 0,0
10.12.2018 15:00:00 13,1 6,2 14,4 11,6 13,5 3 2 9 5 SE 1031,0 34 51 0,0
10.12.2018 14:00:00 11,8 6,3 13,7 11,6 13,5 6 3 15 8 N 1032,0 19 14 0,0
10.12.2018 13:00:00 12,5 8,2 17,6 11,6 13,5 3 2 10 5 W 1032,8 19 60 0,0

tt = Température de l'air
td = dewpoint
tt 5cm = Température de l'air 5cm
tt -20cm = Température de l'air -20cm
tt -100cm = Température de l'air -100cm
ff = Vitesse du vent
fx = gusts
dd = Direction du vent
ppp = reduced air pressure
vv = visibility
sd = Ensoleillement
rr = Quantités de précipitations

stations d'obs. à proximité